Location: Del Amo
(33.8464°N, 118.2104°W)
Time: 18:45:52
(UTC+00:00)

Vanguard 3 - Pass Details

Date: 14 September 2024
Orbit: 507 x 3224 km, 33.4° (Epoch: 05 October)

Event Time Altitude Azimuth Distance (km) Brightness Sun altitude
Rises 20:03:24 0° 284° (WNW) 6,888 11.8 58.9°
Reaches altitude 10° 20:08:32 10° 282° (WNW) 5,592 11.5 58.8°
Maximum altitude 20:23:44 59° 209° (SSW) 2,147 12.3 58.0°
Drops below altitude 10° 20:32:26 10° 131° (SE) 3,335 10.6 57.4°
Sets 20:34:44 0° 127° (SE) 4,026 10.8 57.3°
